owner,sensor,date,latitude,longitude,vertical_datum,mass_concentration_of_oxygen_in_sea_water,qcFlag 
SCCF RECON,ioos:station:SCCF:11:1,2013-11-01T00:00:00Z,26.4679,-82.0631,2.049,7.15,1111122 
SCCF RECON,ioos:station:SCCF:11:1,2013-11-01T01:00:00Z,26.4679,-82.0631,2.17,6.67,1111122 
SCCF RECON,ioos:station:SCCF:11:1,2013-11-01T02:00:00Z,26.4679,-82.0631,2.26,6.79,1111122 
SCCF RECON,ioos:station:SCCF:11:1,2013-11-01T03:00:00Z,26.4679,-82.0631,2.33,6.61,1111122 
SCCF RECON,ioos:station:SCCF:11:1,2013-11-01T04:00:00Z,26.4679,-82.0631,2.36,6.27,1111122 
SCCF RECON,ioos:station:SCCF:11:1,2013-11-01T05:00:00Z,26.4679,-82.0631,2.31,6.35,1111122 
SCCF RECON,ioos:station:SCCF:11:1,2013-11-01T06:00:00Z,26.4679,-82.0631,2.142,6.54,1111122 
SCCF RECON,ioos:station:SCCF:11:1,2013-11-01T07:00:00Z,26.4679,-82.0631,1.979,6.2,1111122 
SCCF RECON,ioos:station:SCCF:11:1,2013-11-01T08:00:00Z,26.4679,-82.0631,1.85,6.05,1111122 
SCCF RECON,ioos:station:SCCF:11:1,2013-11-01T09:00:00Z,26.4679,-82.0631,1.724,5.91,1111122 
SCCF RECON,ioos:station:SCCF:11:1,2013-11-01T10:00:00Z,26.4679,-82.0631,1.63,5.8,1111122 
SCCF RECON,ioos:station:SCCF:11:1,2013-11-01T11:00:00Z,26.4679,-82.0631,1.61,5.79,1111122 
SCCF RECON,ioos:station:SCCF:11:1,2013-11-01T12:00:00Z,26.4679,-82.0631,1.727,5.58,1111122 
SCCF RECON,ioos:station:SCCF:11:1,2013-11-01T13:00:00Z,26.4679,-82.0631,1.91,5.87,1111122 
SCCF RECON,ioos:station:SCCF:11:1,2013-11-01T14:00:00Z,26.4679,-82.0631,2.049,6.0,1111122 
SCCF RECON,ioos:station:SCCF:11:1,2013-11-01T15:00:00Z,26.4679,-82.0631,2.14,6.02,1111122 
SCCF RECON,ioos:station:SCCF:11:1,2013-11-01T16:00:00Z,26.4679,-82.0631,2.21,6.14,1111122 
SCCF RECON,ioos:station:SCCF:11:1,2013-11-01T17:00:00Z,26.4679,-82.0631,2.225,6.27,1111122 
SCCF RECON,ioos:station:SCCF:11:1,2013-11-01T18:00:00Z,26.4679,-82.0631,2.161,6.33,1111122 
SCCF RECON,ioos:station:SCCF:11:1,2013-11-01T19:00:00Z,26.4679,-82.0631,2.04,6.73,1111122 
SCCF RECON,ioos:station:SCCF:11:1,2013-11-01T20:00:00Z,26.4679,-82.0631,1.949,6.96,1111122 
SCCF RECON,ioos:station:SCCF:11:1,2013-11-01T21:00:00Z,26.4679,-82.0631,1.869,7.03,1111122 
SCCF RECON,ioos:station:SCCF:11:1,2013-11-01T22:00:00Z,26.4679,-82.0631,1.799,6.98,1111122 
SCCF RECON,ioos:station:SCCF:11:1,2013-11-01T23:00:00Z,26.4679,-82.0631,1.808,6.96,1111122 
SCCF RECON,ioos:station:SCCF:11:1,2013-11-02T00:00:00Z,26.4679,-82.0631,1.91,6.97,1111122 
SCCF RECON,ioos:station:SCCF:11:1,2013-11-02T01:00:00Z,26.4679,-82.0631,2.081,6.74,1111122 
SCCF RECON,ioos:station:SCCF:11:1,2013-11-02T02:00:00Z,26.4679,-82.0631,2.21,6.27,1111122 
SCCF RECON,ioos:station:SCCF:11:1,2013-11-02T03:00:00Z,26.4679,-82.0631,2.3,6.55,1111122 
SCCF RECON,ioos:station:SCCF:11:1,2013-11-02T04:00:00Z,26.4679,-82.0631,2.35,6.34,1111122 
SCCF RECON,ioos:station:SCCF:11:1,2013-11-02T05:00:00Z,26.4679,-82.0631,2.321,6.31,1111122 
SCCF RECON,ioos:station:SCCF:11:1,2013-11-02T06:00:00Z,26.4679,-82.0631,2.22,6.36,1111122 
SCCF RECON,ioos:station:SCCF:11:1,2013-11-02T07:00:00Z,26.4679,-82.0631,2.041,6.16,1111122 
SCCF RECON,ioos:station:SCCF:11:1,2013-11-02T08:00:00Z,26.4679,-82.0631,1.884,5.9,1111122 
SCCF RECON,ioos:station:SCCF:11:1,2013-11-02T09:00:00Z,26.4679,-82.0631,1.742,5.74,1111122 
SCCF RECON,ioos:station:SCCF:11:1,2013-11-02T10:00:00Z,26.4679,-82.0631,1.61,5.55,1111122 
SCCF RECON,ioos:station:SCCF:11:1,2013-11-02T11:00:00Z,26.4679,-82.0631,1.531,5.63,1111122 
SCCF RECON,ioos:station:SCCF:11:1,2013-11-02T12:00:00Z,26.4679,-82.0631,1.59,5.15,1111122 
SCCF RECON,ioos:station:SCCF:11:1,2013-11-02T13:00:00Z,26.4679,-82.0631,1.75,5.64,1111122 
SCCF RECON,ioos:station:SCCF:11:1,2013-11-02T14:00:00Z,26.4679,-82.0631,1.921,5.99,1111122 
SCCF RECON,ioos:station:SCCF:11:1,2013-11-02T15:00:00Z,26.4679,-82.0631,2.04,5.98,1111122 
SCCF RECON,ioos:station:SCCF:11:1,2013-11-02T16:00:00Z,26.4679,-82.0631,2.141,6.03,1111122 
SCCF RECON,ioos:station:SCCF:11:1,2013-11-02T17:00:00Z,26.4679,-82.0631,2.232,6.11,1111122 
SCCF RECON,ioos:station:SCCF:11:1,2013-11-02T18:00:00Z,26.4679,-82.0631,2.233,6.44,1111122 
SCCF RECON,ioos:station:SCCF:11:1,2013-11-02T19:00:00Z,26.4679,-82.0631,2.012,6.35,1111122 
SCCF RECON,ioos:station:SCCF:11:1,2013-11-02T20:00:00Z,26.4679,-82.0631,1.837,6.29,1111122 
SCCF RECON,ioos:station:SCCF:11:1,2013-11-02T21:00:00Z,26.4679,-82.0631,1.771,6.27,1111122 
SCCF RECON,ioos:station:SCCF:11:1,2013-11-02T22:00:00Z,26.4679,-82.0631,1.765,6.31,1111122 
SCCF RECON,ioos:station:SCCF:11:1,2013-11-02T23:00:00Z,26.4679,-82.0631,1.724,6.28,1111122 
SCCF RECON,ioos:station:SCCF:11:1,2013-11-03T00:00:00Z,26.4679,-82.0631,1.723,6.21,1111122 
SCCF RECON,ioos:station:SCCF:11:1,2013-11-03T01:00:00Z,26.4679,-82.0631,1.8,6.2,1111122 
SCCF RECON,ioos:station:SCCF:11:1,2013-11-03T02:00:00Z,26.4679,-82.0631,1.954,6.05,1111122 
SCCF RECON,ioos:station:SCCF:11:1,2013-11-03T03:00:00Z,26.4679,-82.0631,2.09,6.06,1111122 
SCCF RECON,ioos:station:SCCF:11:1,2013-11-03T04:00:00Z,26.4679,-82.0631,2.192,6.04,1111122 
SCCF RECON,ioos:station:SCCF:11:1,2013-11-03T05:00:00Z,26.4679,-82.0631,2.232,5.97,1111122 
SCCF RECON,ioos:station:SCCF:11:1,2013-11-03T06:00:00Z,26.4679,-82.0631,2.128,6.14,1111122 
SCCF RECON,ioos:station:SCCF:11:1,2013-11-03T07:00:00Z,26.4679,-82.0631,1.959,5.84,1111122 
SCCF RECON,ioos:station:SCCF:11:1,2013-11-03T08:00:00Z,26.4679,-82.0631,1.782,5.65,1111122 
SCCF RECON,ioos:station:SCCF:11:1,2013-11-03T09:00:00Z,26.4679,-82.0631,1.634,5.51,1111122 
SCCF RECON,ioos:station:SCCF:11:1,2013-11-03T10:00:00Z,26.4679,-82.0631,1.494,5.4,1111122 
SCCF RECON,ioos:station:SCCF:11:1,2013-11-03T11:00:00Z,26.4679,-82.0631,1.37,5.39,1111122 
SCCF RECON,ioos:station:SCCF:11:1,2013-11-03T12:00:00Z,26.4679,-82.0631,1.295,5.49,1111122 
SCCF RECON,ioos:station:SCCF:11:1,2013-11-03T13:00:00Z,26.4679,-82.0631,1.307,5.52,1111122 
SCCF RECON,ioos:station:SCCF:11:1,2013-11-03T14:00:00Z,26.4679,-82.0631,1.425,5.79,1111122 
SCCF RECON,ioos:station:SCCF:11:1,2013-11-03T15:00:00Z,26.4679,-82.0631,1.61,6.08,1111122 
SCCF RECON,ioos:station:SCCF:11:1,2013-11-03T16:00:00Z,26.4679,-82.0631,1.757,6.32,1111122 
SCCF RECON,ioos:station:SCCF:11:1,2013-11-03T17:00:00Z,26.4679,-82.0631,1.874,6.52,1111122 
SCCF RECON,ioos:station:SCCF:11:1,2013-11-03T18:00:00Z,26.4679,-82.0631,1.941,6.87,1111122 
SCCF RECON,ioos:station:SCCF:11:1,2013-11-03T19:00:00Z,26.4679,-82.0631,1.94,6.99,1111122 
SCCF RECON,ioos:station:SCCF:11:1,2013-11-03T20:00:00Z,26.4679,-82.0631,1.855,6.99,1111122 
SCCF RECON,ioos:station:SCCF:11:1,2013-11-03T21:00:00Z,26.4679,-82.0631,1.781,7.5,1111122 
SCCF RECON,ioos:station:SCCF:11:1,2013-11-03T22:00:00Z,26.4679,-82.0631,1.713,7.45,1111122 
SCCF RECON,ioos:station:SCCF:11:1,2013-11-03T23:00:00Z,26.4679,-82.0631,1.68,7.3,1111122 
SCCF RECON,ioos:station:SCCF:11:1,2013-11-04T00:00:00Z,26.4679,-82.0631,1.699,7.35,1111122 
SCCF RECON,ioos:station:SCCF:11:1,2013-11-04T01:00:00Z,26.4679,-82.0631,1.769,7.15,1111122 
SCCF RECON,ioos:station:SCCF:11:1,2013-11-04T02:00:00Z,26.4679,-82.0631,1.889,6.95,1111122 
SCCF RECON,ioos:station:SCCF:11:1,2013-11-04T03:00:00Z,26.4679,-82.0631,2.018,6.89,1111122 
SCCF RECON,ioos:station:SCCF:11:1,2013-11-04T04:00:00Z,26.4679,-82.0631,2.099,6.96,1111122 
SCCF RECON,ioos:station:SCCF:11:1,2013-11-04T05:00:00Z,26.4679,-82.0631,2.151,6.86,1111122 
SCCF RECON,ioos:station:SCCF:11:1,2013-11-04T06:00:00Z,26.4679,-82.0631,2.125,6.87,1111122 
SCCF RECON,ioos:station:SCCF:11:1,2013-11-04T07:00:00Z,26.4679,-82.0631,1.99,6.74,1111122 
SCCF RECON,ioos:station:SCCF:11:1,2013-11-04T08:00:00Z,26.4679,-82.0631,1.809,6.49,1111122 
SCCF RECON,ioos:station:SCCF:11:1,2013-11-04T09:00:00Z,26.4679,-82.0631,1.639,6.35,1111122 
SCCF RECON,ioos:station:SCCF:11:1,2013-11-04T10:00:00Z,26.4679,-82.0631,1.499,6.25,1111122 
SCCF RECON,ioos:station:SCCF:11:1,2013-11-04T11:00:00Z,26.4679,-82.0631,1.361,6.25,1111122 
SCCF RECON,ioos:station:SCCF:11:1,2013-11-04T12:00:00Z,26.4679,-82.0631,1.251,6.16,1111122 
SCCF RECON,ioos:station:SCCF:11:1,2013-11-04T13:00:00Z,26.4679,-82.0631,1.218,6.21,1111122 
SCCF RECON,ioos:station:SCCF:11:1,2013-11-04T14:00:00Z,26.4679,-82.0631,1.31,6.43,1111122 
SCCF RECON,ioos:station:SCCF:11:1,2013-11-04T15:00:00Z,26.4679,-82.0631,1.488,6.7,1111122 
SCCF RECON,ioos:station:SCCF:11:1,2013-11-04T16:00:00Z,26.4679,-82.0631,1.647,7.04,1111122 
SCCF RECON,ioos:station:SCCF:11:1,2013-11-04T17:00:00Z,26.4679,-82.0631,1.761,7.36,1111122 
SCCF RECON,ioos:station:SCCF:11:1,2013-11-04T18:00:00Z,26.4679,-82.0631,1.86,7.32,1111122 
SCCF RECON,ioos:station:SCCF:11:1,2013-11-04T19:00:00Z,26.4679,-82.0631,1.946,7.15,1111122 
SCCF RECON,ioos:station:SCCF:11:1,2013-11-04T20:00:00Z,26.4679,-82.0631,1.979,7.18,1111122 
SCCF RECON,ioos:station:SCCF:11:1,2013-11-04T21:00:00Z,26.4679,-82.0631,1.92,7.17,1111122 
SCCF RECON,ioos:station:SCCF:11:1,2013-11-04T22:00:00Z,26.4679,-82.0631,1.829,7.45,1111122 
SCCF RECON,ioos:station:SCCF:11:1,2013-11-04T23:00:00Z,26.4679,-82.0631,1.755,7.41,1111122 
SCCF RECON,ioos:station:SCCF:11:1,2013-11-05T00:00:00Z,26.4679,-82.0631,1.7,7.36,1111122 
SCCF RECON,ioos:station:SCCF:11:1,2013-11-05T01:00:00Z,26.4679,-82.0631,1.706,7.08,1111122 
SCCF RECON,ioos:station:SCCF:11:1,2013-11-05T02:00:00Z,26.4679,-82.0631,1.8,6.99,1111122 
SCCF RECON,ioos:station:SCCF:11:1,2013-11-05T03:00:00Z,26.4679,-82.0631,1.95,7.02,1111122 
SCCF RECON,ioos:station:SCCF:11:1,2013-11-05T04:00:00Z,26.4679,-82.0631,2.08,6.94,1111122 
SCCF RECON,ioos:station:SCCF:11:1,2013-11-05T05:00:00Z,26.4679,-82.0631,2.149,6.81,1111122 
SCCF RECON,ioos:station:SCCF:11:1,2013-11-05T06:00:00Z,26.4679,-82.0631,2.152,6.89,1111122 
SCCF RECON,ioos:station:SCCF:11:1,2013-11-05T07:00:00Z,26.4679,-82.0631,2.1,6.82,1111122 
SCCF RECON,ioos:station:SCCF:11:1,2013-11-05T08:00:00Z,26.4679,-82.0631,1.978,6.77,1111122 
SCCF RECON,ioos:station:SCCF:11:1,2013-11-05T09:00:00Z,26.4679,-82.0631,1.826,6.57,1111122 
SCCF RECON,ioos:station:SCCF:11:1,2013-11-05T10:00:00Z,26.4679,-82.0631,1.697,6.53,1111122 
SCCF RECON,ioos:station:SCCF:11:1,2013-11-05T11:00:00Z,26.4679,-82.0631,1.547,6.47,1111122 
SCCF RECON,ioos:station:SCCF:11:1,2013-11-05T12:00:00Z,26.4679,-82.0631,1.439,6.31,1111122 
SCCF RECON,ioos:station:SCCF:11:1,2013-11-05T13:00:00Z,26.4679,-82.0631,1.348,6.04,1111122 
SCCF RECON,ioos:station:SCCF:11:1,2013-11-05T14:00:00Z,26.4679,-82.0631,1.329,6.35,1111122 
SCCF RECON,ioos:station:SCCF:11:1,2013-11-05T15:00:00Z,26.4679,-82.0631,1.447,6.59,1111122 
SCCF RECON,ioos:station:SCCF:11:1,2013-11-05T16:00:00Z,26.4679,-82.0631,1.627,7.23,1111122 
SCCF RECON,ioos:station:SCCF:11:1,2013-11-05T17:00:00Z,26.4679,-82.0631,1.759,7.28,1111122 
SCCF RECON,ioos:station:SCCF:11:1,2013-11-05T18:00:00Z,26.4679,-82.0631,1.869,7.17,1111122 
SCCF RECON,ioos:station:SCCF:11:1,2013-11-05T19:00:00Z,26.4679,-82.0631,1.986,7.34,1111122 
SCCF RECON,ioos:station:SCCF:11:1,2013-11-05T20:00:00Z,26.4679,-82.0631,2.05,7.05,1111122 
SCCF RECON,ioos:station:SCCF:11:1,2013-11-05T21:00:00Z,26.4679,-82.0631,2.04,6.99,1111122 
SCCF RECON,ioos:station:SCCF:11:1,2013-11-05T22:00:00Z,26.4679,-82.0631,1.95,7.19,1111122 
SCCF RECON,ioos:station:SCCF:11:1,2013-11-05T23:00:00Z,26.4679,-82.0631,1.834,7.11,1111122 
SCCF RECON,ioos:station:SCCF:11:1,2013-11-06T00:00:00Z,26.4679,-82.0631,1.797,7.04,1111122 
SCCF RECON,ioos:station:SCCF:11:1,2013-11-06T01:00:00Z,26.4679,-82.0631,1.77,6.98,1111122 
SCCF RECON,ioos:station:SCCF:11:1,2013-11-06T02:00:00Z,26.4679,-82.0631,1.836,6.83,1111122 
SCCF RECON,ioos:station:SCCF:11:1,2013-11-06T03:00:00Z,26.4679,-82.0631,1.962,6.57,1111122 
SCCF RECON,ioos:station:SCCF:11:1,2013-11-06T04:00:00Z,26.4679,-82.0631,2.11,6.77,1111122 
SCCF RECON,ioos:station:SCCF:11:1,2013-11-06T05:00:00Z,26.4679,-82.0631,2.21,6.86,1111122 
SCCF RECON,ioos:station:SCCF:11:1,2013-11-06T06:00:00Z,26.4679,-82.0631,2.27,6.73,1111122 
SCCF RECON,ioos:station:SCCF:11:1,2013-11-06T07:00:00Z,26.4679,-82.0631,2.27,6.58,1111122 
SCCF RECON,ioos:station:SCCF:11:1,2013-11-06T08:00:00Z,26.4679,-82.0631,2.19,6.7,1111122 
SCCF RECON,ioos:station:SCCF:11:1,2013-11-06T09:00:00Z,26.4679,-82.0631,2.11,6.55,1111122 
SCCF RECON,ioos:station:SCCF:11:1,2013-11-06T10:00:00Z,26.4679,-82.0631,1.947,6.34,1111122 
SCCF RECON,ioos:station:SCCF:11:1,2013-11-06T11:00:00Z,26.4679,-82.0631,1.79,6.06,1111122 
SCCF RECON,ioos:station:SCCF:11:1,2013-11-06T12:00:00Z,26.4679,-82.0631,1.66,5.92,1111122 
SCCF RECON,ioos:station:SCCF:11:1,2013-11-06T13:00:00Z,26.4679,-82.0631,1.522,5.9,1111122 
SCCF RECON,ioos:station:SCCF:11:1,2013-11-06T14:00:00Z,26.4679,-82.0631,1.413,5.9,1111122 
SCCF RECON,ioos:station:SCCF:11:1,2013-11-06T15:00:00Z,26.4679,-82.0631,1.403,6.23,1111122 
SCCF RECON,ioos:station:SCCF:11:1,2013-11-06T16:00:00Z,26.4679,-82.0631,1.56,6.49,1111122 
SCCF RECON,ioos:station:SCCF:11:1,2013-11-06T17:00:00Z,26.4679,-82.0631,1.748,7.12,1111122 
SCCF RECON,ioos:station:SCCF:11:1,2013-11-06T18:00:00Z,26.4679,-82.0631,1.875,7.11,1111122 
SCCF RECON,ioos:station:SCCF:11:1,2013-11-06T19:00:00Z,26.4679,-82.0631,1.98,7.19,1111122 
SCCF RECON,ioos:station:SCCF:11:1,2013-11-06T20:00:00Z,26.4679,-82.0631,2.085,7.03,1111122 
SCCF RECON,ioos:station:SCCF:11:1,2013-11-06T21:00:00Z,26.4679,-82.0631,2.14,7.06,1111122 
SCCF RECON,ioos:station:SCCF:11:1,2013-11-06T22:00:00Z,26.4679,-82.0631,2.12,7.05,1111122 
SCCF RECON,ioos:station:SCCF:11:1,2013-11-06T23:00:00Z,26.4679,-82.0631,2.025,7.45,1111122 
SCCF RECON,ioos:station:SCCF:11:1,2013-11-07T00:00:00Z,26.4679,-82.0631,1.98,7.45,1111122 
SCCF RECON,ioos:station:SCCF:11:1,2013-11-07T01:00:00Z,26.4679,-82.0631,1.96,7.13,1111122 
SCCF RECON,ioos:station:SCCF:11:1,2013-11-07T02:00:00Z,26.4679,-82.0631,1.96,7.08,1111122 
SCCF RECON,ioos:station:SCCF:11:1,2013-11-07T03:00:00Z,26.4679,-82.0631,2.01,6.96,1111122 
SCCF RECON,ioos:station:SCCF:11:1,2013-11-07T04:00:00Z,26.4679,-82.0631,2.112,6.78,1111122 
SCCF RECON,ioos:station:SCCF:11:1,2013-11-07T05:00:00Z,26.4679,-82.0631,2.22,6.94,1111122 
SCCF RECON,ioos:station:SCCF:11:1,2013-11-07T06:00:00Z,26.4679,-82.0631,2.29,6.65,1111122 
SCCF RECON,ioos:station:SCCF:11:1,2013-11-07T07:00:00Z,26.4679,-82.0631,2.31,6.67,1111122 
SCCF RECON,ioos:station:SCCF:11:1,2013-11-07T08:00:00Z,26.4679,-82.0631,2.31,6.68,1111122 
SCCF RECON,ioos:station:SCCF:11:1,2013-11-07T09:00:00Z,26.4679,-82.0631,2.25,6.35,1111122 
SCCF RECON,ioos:station:SCCF:11:1,2013-11-07T10:00:00Z,26.4679,-82.0631,2.1,6.46,1111122 
SCCF RECON,ioos:station:SCCF:11:1,2013-11-07T11:00:00Z,26.4679,-82.0631,1.96,6.25,1111122 
SCCF RECON,ioos:station:SCCF:11:1,2013-11-07T12:00:00Z,26.4679,-82.0631,1.82,5.92,1111122 
SCCF RECON,ioos:station:SCCF:11:1,2013-11-07T13:00:00Z,26.4679,-82.0631,1.689,5.85,1111122 
SCCF RECON,ioos:station:SCCF:11:1,2013-11-07T14:00:00Z,26.4679,-82.0631,1.55,5.68,1111122 
SCCF RECON,ioos:station:SCCF:11:1,2013-11-07T15:00:00Z,26.4679,-82.0631,1.471,5.7,1111122 
SCCF RECON,ioos:station:SCCF:11:1,2013-11-07T16:00:00Z,26.4679,-82.0631,1.49,6.37,1111122 
SCCF RECON,ioos:station:SCCF:11:1,2013-11-07T17:00:00Z,26.4679,-82.0631,1.63,6.18,1111122 
SCCF RECON,ioos:station:SCCF:11:1,2013-11-07T18:00:00Z,26.4679,-82.0631,1.8,6.58,1111122 
SCCF RECON,ioos:station:SCCF:11:1,2013-11-07T19:00:00Z,26.4679,-82.0631,1.911,7.04,1111122 
SCCF RECON,ioos:station:SCCF:11:1,2013-11-07T20:00:00Z,26.4679,-82.0631,1.976,6.9,1111122 
SCCF RECON,ioos:station:SCCF:11:1,2013-11-07T21:00:00Z,26.4679,-82.0631,2.031,7.13,1111122 
SCCF RECON,ioos:station:SCCF:11:1,2013-11-07T22:00:00Z,26.4679,-82.0631,2.074,7.05,1111122 
SCCF RECON,ioos:station:SCCF:11:1,2013-11-07T23:00:00Z,26.4679,-82.0631,2.04,7.24,1111122 
SCCF RECON,ioos:station:SCCF:11:1,2013-11-08T00:00:00Z,26.4679,-82.0631,1.95,7.11,1111122 
SCCF RECON,ioos:station:SCCF:11:1,2013-11-08T01:00:00Z,26.4679,-82.0631,1.87,6.86,1111122 
SCCF RECON,ioos:station:SCCF:11:1,2013-11-08T02:00:00Z,26.4679,-82.0631,1.85,6.8,1111122 
SCCF RECON,ioos:station:SCCF:11:1,2013-11-08T03:00:00Z,26.4679,-82.0631,1.85,6.91,1111122 
SCCF RECON,ioos:station:SCCF:11:1,2013-11-08T04:00:00Z,26.4679,-82.0631,1.889,6.79,1111122 
SCCF RECON,ioos:station:SCCF:11:1,2013-11-08T05:00:00Z,26.4679,-82.0631,1.97,6.67,1111122 
SCCF RECON,ioos:station:SCCF:11:1,2013-11-08T06:00:00Z,26.4679,-82.0631,2.07,6.52,1111122 
SCCF RECON,ioos:station:SCCF:11:1,2013-11-08T07:00:00Z,26.4679,-82.0631,2.16,6.35,1111122 
SCCF RECON,ioos:station:SCCF:11:1,2013-11-08T08:00:00Z,26.4679,-82.0631,2.2,6.34,1111122 
SCCF RECON,ioos:station:SCCF:11:1,2013-11-08T09:00:00Z,26.4679,-82.0631,2.18,6.26,1111122 
SCCF RECON,ioos:station:SCCF:11:1,2013-11-08T10:00:00Z,26.4679,-82.0631,2.093,6.38,1111122 
SCCF RECON,ioos:station:SCCF:11:1,2013-11-08T11:00:00Z,26.4679,-82.0631,1.96,6.14,1111122 
SCCF RECON,ioos:station:SCCF:11:1,2013-11-08T12:00:00Z,26.4679,-82.0631,1.81,5.82,1111122 
SCCF RECON,ioos:station:SCCF:11:1,2013-11-08T13:00:00Z,26.4679,-82.0631,1.67,5.6,1111122 
SCCF RECON,ioos:station:SCCF:11:1,2013-11-08T14:00:00Z,26.4679,-82.0631,1.55,5.6,1111122 
SCCF RECON,ioos:station:SCCF:11:1,2013-11-08T15:00:00Z,26.4679,-82.0631,1.44,5.6,1111122 
SCCF RECON,ioos:station:SCCF:11:1,2013-11-08T16:00:00Z,26.4679,-82.0631,1.371,5.86,1111122 
SCCF RECON,ioos:station:SCCF:11:1,2013-11-08T17:00:00Z,26.4679,-82.0631,1.41,6.48,1111122 
SCCF RECON,ioos:station:SCCF:11:1,2013-11-08T18:00:00Z,26.4679,-82.0631,1.542,6.53,1111122 
SCCF RECON,ioos:station:SCCF:11:1,2013-11-08T19:00:00Z,26.4679,-82.0631,1.69,7.14,1111122 
SCCF RECON,ioos:station:SCCF:11:1,2013-11-08T20:00:00Z,26.4679,-82.0631,1.78,7.25,1111122 
SCCF RECON,ioos:station:SCCF:11:1,2013-11-08T21:00:00Z,26.4679,-82.0631,1.861,7.38,1111122 
SCCF RECON,ioos:station:SCCF:11:1,2013-11-08T22:00:00Z,26.4679,-82.0631,1.93,7.27,1111122 
SCCF RECON,ioos:station:SCCF:11:1,2013-11-08T23:00:00Z,26.4679,-82.0631,1.96,6.98,1111122 
SCCF RECON,ioos:station:SCCF:11:1,2013-11-09T00:00:00Z,26.4679,-82.0631,1.928,6.96,1111122 
SCCF RECON,ioos:station:SCCF:11:1,2013-11-09T01:00:00Z,26.4679,-82.0631,1.87,6.97,1111122 
SCCF RECON,ioos:station:SCCF:11:1,2013-11-09T02:00:00Z,26.4679,-82.0631,1.789,6.87,1111122 
SCCF RECON,ioos:station:SCCF:11:1,2013-11-09T03:00:00Z,26.4679,-82.0631,1.73,6.79,1111122 
SCCF RECON,ioos:station:SCCF:11:1,2013-11-09T04:00:00Z,26.4679,-82.0631,1.7,6.66,1111122 
SCCF RECON,ioos:station:SCCF:11:1,2013-11-09T05:00:00Z,26.4679,-82.0631,1.73,6.62,1111122 
SCCF RECON,ioos:station:SCCF:11:1,2013-11-09T06:00:00Z,26.4679,-82.0631,1.8,6.49,1111122 
SCCF RECON,ioos:station:SCCF:11:1,2013-11-09T07:00:00Z,26.4679,-82.0631,1.859,6.51,1111122 
SCCF RECON,ioos:station:SCCF:11:1,2013-11-09T08:00:00Z,26.4679,-82.0631,1.96,6.59,1111122 
SCCF RECON,ioos:station:SCCF:11:1,2013-11-09T09:00:00Z,26.4679,-82.0631,2.05,6.53,1111122 
SCCF RECON,ioos:station:SCCF:11:1,2013-11-09T10:00:00Z,26.4679,-82.0631,2.08,6.65,1111122 
SCCF RECON,ioos:station:SCCF:11:1,2013-11-09T11:00:00Z,26.4679,-82.0631,2.03,6.57,1111122 
SCCF RECON,ioos:station:SCCF:11:1,2013-11-09T12:00:00Z,26.4679,-82.0631,1.929,6.37,1111122 
SCCF RECON,ioos:station:SCCF:11:1,2013-11-09T13:00:00Z,26.4679,-82.0631,1.82,6.1,1111122 
SCCF RECON,ioos:station:SCCF:11:1,2013-11-09T14:00:00Z,26.4679,-82.0631,1.71,6.07,1111122 
SCCF RECON,ioos:station:SCCF:11:1,2013-11-09T15:00:00Z,26.4679,-82.0631,1.604,6.08,1111122 
SCCF RECON,ioos:station:SCCF:11:1,2013-11-09T16:00:00Z,26.4679,-82.0631,1.51,6.02,1111122 
SCCF RECON,ioos:station:SCCF:11:1,2013-11-09T17:00:00Z,26.4679,-82.0631,1.45,5.95,1111122 
SCCF RECON,ioos:station:SCCF:11:1,2013-11-09T18:00:00Z,26.4679,-82.0631,1.501,6.3,1111122 
SCCF RECON,ioos:station:SCCF:11:1,2013-11-09T19:00:00Z,26.4679,-82.0631,1.622,7.25,1111122 
SCCF RECON,ioos:station:SCCF:11:1,2013-11-09T20:00:00Z,26.4679,-82.0631,1.75,7.34,1111122 
SCCF RECON,ioos:station:SCCF:11:1,2013-11-09T21:00:00Z,26.4679,-82.0631,1.85,7.24,1111122 
SCCF RECON,ioos:station:SCCF:11:1,2013-11-09T22:00:00Z,26.4679,-82.0631,1.92,7.36,1111122 
SCCF RECON,ioos:station:SCCF:11:1,2013-11-09T23:00:00Z,26.4679,-82.0631,1.99,7.14,1111122 
SCCF RECON,ioos:station:SCCF:11:1,2013-11-10T00:00:00Z,26.4679,-82.0631,2.03,6.9,1111122 
SCCF RECON,ioos:station:SCCF:11:1,2013-11-10T01:00:00Z,26.4679,-82.0631,2.02,6.77,1111122 
SCCF RECON,ioos:station:SCCF:11:1,2013-11-10T02:00:00Z,26.4679,-82.0631,1.95,6.79,1111122 
SCCF RECON,ioos:station:SCCF:11:1,2013-11-10T03:00:00Z,26.4679,-82.0631,1.9,6.73,1111122 
SCCF RECON,ioos:station:SCCF:11:1,2013-11-10T04:00:00Z,26.4679,-82.0631,1.85,6.62,1111122 
SCCF RECON,ioos:station:SCCF:11:1,2013-11-10T05:00:00Z,26.4679,-82.0631,1.8,6.48,1111122 
SCCF RECON,ioos:station:SCCF:11:1,2013-11-10T06:00:00Z,26.4679,-82.0631,1.77,6.34,1111122 
SCCF RECON,ioos:station:SCCF:11:1,2013-11-10T07:00:00Z,26.4679,-82.0631,1.85,6.26,1111122 
SCCF RECON,ioos:station:SCCF:11:1,2013-11-10T08:00:00Z,26.4679,-82.0631,1.97,6.23,1111122 
SCCF RECON,ioos:station:SCCF:11:1,2013-11-10T09:00:00Z,26.4679,-82.0631,2.07,6.44,1111122 
SCCF RECON,ioos:station:SCCF:11:1,2013-11-10T10:00:00Z,26.4679,-82.0631,2.13,6.14,1111122 
SCCF RECON,ioos:station:SCCF:11:1,2013-11-10T11:00:00Z,26.4679,-82.0631,2.16,6.31,1111122 
SCCF RECON,ioos:station:SCCF:11:1,2013-11-10T12:00:00Z,26.4679,-82.0631,2.16,6.09,1111122 
SCCF RECON,ioos:station:SCCF:11:1,2013-11-10T13:00:00Z,26.4679,-82.0631,2.093,6.28,1111122 
SCCF RECON,ioos:station:SCCF:11:1,2013-11-10T14:00:00Z,26.4679,-82.0631,1.97,6.31,1111122 
SCCF RECON,ioos:station:SCCF:11:1,2013-11-10T15:00:00Z,26.4679,-82.0631,1.87,6.06,1111122 
SCCF RECON,ioos:station:SCCF:11:1,2013-11-10T16:00:00Z,26.4679,-82.0631,1.766,6.13,1111122 
SCCF RECON,ioos:station:SCCF:11:1,2013-11-10T17:00:00Z,26.4679,-82.0631,1.671,6.31,1111122 
SCCF RECON,ioos:station:SCCF:11:1,2013-11-10T18:00:00Z,26.4679,-82.0631,1.609,6.83,1111122 
SCCF RECON,ioos:station:SCCF:11:1,2013-11-10T19:00:00Z,26.4679,-82.0631,1.64,6.86,1111122 
SCCF RECON,ioos:station:SCCF:11:1,2013-11-10T20:00:00Z,26.4679,-82.0631,1.75,6.82,1111122 
SCCF RECON,ioos:station:SCCF:11:1,2013-11-10T21:00:00Z,26.4679,-82.0631,1.862,7.5,1111122 
SCCF RECON,ioos:station:SCCF:11:1,2013-11-10T22:00:00Z,26.4679,-82.0631,1.95,7.39,1111122 
SCCF RECON,ioos:station:SCCF:11:1,2013-11-10T23:00:00Z,26.4679,-82.0631,2.02,7.4,1111122 
SCCF RECON,ioos:station:SCCF:11:1,2013-11-11T00:00:00Z,26.4679,-82.0631,2.07,7.21,1111122 
SCCF RECON,ioos:station:SCCF:11:1,2013-11-11T01:00:00Z,26.4679,-82.0631,2.104,6.92,1111122 
SCCF RECON,ioos:station:SCCF:11:1,2013-11-11T02:00:00Z,26.4679,-82.0631,2.08,6.81,1111122 
SCCF RECON,ioos:station:SCCF:11:1,2013-11-11T03:00:00Z,26.4679,-82.0631,2.01,7.01,1111122 
SCCF RECON,ioos:station:SCCF:11:1,2013-11-11T04:00:00Z,26.4679,-82.0631,1.92,6.83,1111122 
SCCF RECON,ioos:station:SCCF:11:1,2013-11-11T05:00:00Z,26.4679,-82.0631,1.83,6.49,1111122 
SCCF RECON,ioos:station:SCCF:11:1,2013-11-11T06:00:00Z,26.4679,-82.0631,1.742,6.36,1111122 
SCCF RECON,ioos:station:SCCF:11:1,2013-11-11T07:00:00Z,26.4679,-82.0631,1.69,6.29,1111122 
SCCF RECON,ioos:station:SCCF:11:1,2013-11-11T08:00:00Z,26.4679,-82.0631,1.73,6.4,1111122 
SCCF RECON,ioos:station:SCCF:11:1,2013-11-11T09:00:00Z,26.4679,-82.0631,1.82,6.22,1111122 
SCCF RECON,ioos:station:SCCF:11:1,2013-11-11T10:00:00Z,26.4679,-82.0631,1.911,6.26,1111122 
SCCF RECON,ioos:station:SCCF:11:1,2013-11-11T11:00:00Z,26.4679,-82.0631,1.99,6.21,1111122 
SCCF RECON,ioos:station:SCCF:11:1,2013-11-11T12:00:00Z,26.4679,-82.0631,2.06,6.27,1111122 
SCCF RECON,ioos:station:SCCF:11:1,2013-11-11T13:00:00Z,26.4679,-82.0631,2.1,6.22,1111122 
SCCF RECON,ioos:station:SCCF:11:1,2013-11-11T14:00:00Z,26.4679,-82.0631,2.05,6.22,1111122 
SCCF RECON,ioos:station:SCCF:11:1,2013-11-11T15:00:00Z,26.4679,-82.0631,1.93,6.45,1111122 
SCCF RECON,ioos:station:SCCF:11:1,2013-11-11T16:00:00Z,26.4679,-82.0631,1.826,6.42,1111122 
SCCF RECON,ioos:station:SCCF:11:1,2013-11-11T17:00:00Z,26.4679,-82.0631,1.74,6.59,1111122 
SCCF RECON,ioos:station:SCCF:11:1,2013-11-11T18:00:00Z,26.4679,-82.0631,1.659,6.83,1111122 
SCCF RECON,ioos:station:SCCF:11:1,2013-11-11T19:00:00Z,26.4679,-82.0631,1.604,7.1,1111122 
SCCF RECON,ioos:station:SCCF:11:1,2013-11-11T20:00:00Z,26.4679,-82.0631,1.66,7.29,1111122 